When you browse on this site, cookies collect data to enhance your experience and personalize the content and advertising you see.
Visit our Privacy Policy to learn more. By continuing to use the site, you agree to this use of cookies and data.
  • In Belgien
  • Länderverzeichnis
  • Für 7 Tage
  • Wassertemperatur
  • Satellitenkarten
  • Wetterkarte
  • Widgets
  • user-avatar
    Anmelden

    Stündliche Wetter Prislon

    Heute, 21 Februar, Donnerstag

    Zeit Temperatur Niederschläge Wind Luftdruck Luftfeuchtigkeit
    00:00 -1°C° 0.2 mm 4 m/S 733 mmHg 91%
    01:00 -1°C° 0.2 mm 4 m/S 733 mmHg 91%
    02:00 -1°C° 0.2 mm 4 m/S 733 mmHg 90%
    03:00 -2°C° 0.5 mm 4 m/S 733 mmHg 90%
    04:00 -3°C° 0.5 mm 4 m/S 733 mmHg 90%
    05:00 -5°C° 0.5 mm 5 m/S 733 mmHg 90%
    06:00 -5°C° 0.6 mm 5 m/S 733 mmHg 90%
    07:00 -5°C° 0.6 mm 5 m/S 734 mmHg 90%
    08:00 -5°C° 0.6 mm 4 m/S 734 mmHg 90%
    09:00 -5°C° 0.4 mm 4 m/S 734 mmHg 90%
    10:00 -5°C° 0.4 mm 4 m/S 735 mmHg 89%
    11:00 -4°C° 0.4 mm 4 m/S 736 mmHg 89%
    12:00 -6°C° 0.4 mm 5 m/S 736 mmHg 87%
    13:00 -8°C° 0.4 mm 6 m/S 737 mmHg 86%
    14:00 -9°C° 0.4 mm 7 m/S 738 mmHg 85%
    15:00 -9°C° 0.3 mm 7 m/S 739 mmHg 84%
    16:00 -11°C° 0.3 mm 7 m/S 740 mmHg 83%
    17:00 -12°C° 0.3 mm 7 m/S 741 mmHg 81%
    18:00 -12°C° 0.1 mm 7 m/S 742 mmHg 81%
    19:00 -13°C° 0.1 mm 7 m/S 742 mmHg 80%
    20:00 -12°C° 0.1 mm 6 m/S 743 mmHg 80%
    21:00 -12°C° 0.1 mm 6 m/S 744 mmHg 80%
    22:00 -14°C° 0.1 mm 6 m/S 744 mmHg 80%
    23:00 -14°C° 0.1 mm 6 m/S 744 mmHg 80%

    Morgen, 22 Februar, Freitag

    Zeit Temperatur Niederschläge Wind Luftdruck Luftfeuchtigkeit
    00:00 -14°C° 0.1 mm 6 m/S 745 mmHg 80%
    01:00 -14°C° 0.1 mm 6 m/S 745 mmHg 80%
    02:00 -15°C° 0.1 mm 7 m/S 746 mmHg 80%
    03:00 -15°C° 0.1 mm 7 m/S 746 mmHg 80%
    04:00 -15°C° 0.1 mm 7 m/S 746 mmHg 80%
    05:00 -15°C° 0.1 mm 7 m/S 747 mmHg 80%
    06:00 -15°C° 0.1 mm 7 m/S 747 mmHg 80%
    07:00 -15°C° 0.1 mm 7 m/S 748 mmHg 79%
    08:00 -15°C° 0.1 mm 7 m/S 748 mmHg 79%
    09:00 -15°C° 0.1 mm 7 m/S 749 mmHg 78%
    10:00 -15°C° 0.1 mm 7 m/S 749 mmHg 77%
    11:00 -15°C° 0.1 mm 7 m/S 750 mmHg 76%
    12:00 -15°C° 0.1 mm 7 m/S 751 mmHg 75%
    13:00 -15°C° 0.1 mm 7 m/S 751 mmHg 74%
    14:00 -14°C° 0.1 mm 7 m/S 752 mmHg 74%
    15:00 -14°C° 0 mm 7 m/S 752 mmHg 73%
    16:00 -15°C° 0 mm 7 m/S 753 mmHg 73%
    17:00 -15°C° 0 mm 6 m/S 754 mmHg 73%
    18:00 -15°C° 0 mm 6 m/S 755 mmHg 74%
    19:00 -15°C° 0 mm 6 m/S 755 mmHg 75%
    20:00 -15°C° 0 mm 6 m/S 756 mmHg 76%
    21:00 -16°C° 0 mm 6 m/S 757 mmHg 78%
    22:00 -15°C° 0 mm 5 m/S 757 mmHg 80%
    23:00 -15°C° 0 mm 5 m/S 758 mmHg 82%

    übermorgen, 23 Februar, Samstag

    Zeit Temperatur Niederschläge Wind Luftdruck Luftfeuchtigkeit
    00:00 -17°C° 0 mm 5 m/S 758 mmHg 83%
    01:00 -17°C° 0 mm 5 m/S 758 mmHg 84%
    02:00 -17°C° 0 mm 5 m/S 759 mmHg 84%
    03:00 -17°C° 0 mm 4 m/S 759 mmHg 85%
    04:00 -17°C° 0 mm 4 m/S 760 mmHg 86%
    05:00 -17°C° 0 mm 4 m/S 760 mmHg 87%
    06:00 -18°C° 0 mm 4 m/S 760 mmHg 87%
    07:00 -18°C° 0 mm 4 m/S 761 mmHg 87%
    08:00 -18°C° 0 mm 4 m/S 761 mmHg 87%
    09:00 -16°C° 0 mm 3 m/S 761 mmHg 84%
    10:00 -15°C° 0 mm 3 m/S 761 mmHg 81%
    11:00 -14°C° 0 mm 3 m/S 761 mmHg 78%
    12:00 -13°C° 0 mm 3 m/S 761 mmHg 77%
    13:00 -12°C° 0 mm 3 m/S 761 mmHg 76%
    14:00 -10°C° 0 mm 3 m/S 761 mmHg 75%
    15:00 -10°C° 0 mm 2 m/S 761 mmHg 79%
    16:00 -10°C° 0 mm 2 m/S 761 mmHg 83%
    17:00 -10°C° 0 mm 1 m/S 760 mmHg 87%
    18:00 -12°C° 0 mm 2 m/S 760 mmHg 86%
    19:00 -10°C° 0 mm 2 m/S 760 mmHg 85%
    20:00 -10°C° 0 mm 2 m/S 760 mmHg 84%
    21:00 -12°C° 0.1 mm 3 m/S 759 mmHg 86%
    22:00 -10°C° 0.1 mm 3 m/S 758 mmHg 89%
    23:00 -10°C° 0.1 mm 3 m/S 758 mmHg 91%

    24 Februar, Sonntag

    Zeit Temperatur Niederschläge Wind Luftdruck Luftfeuchtigkeit
    00:00 -10°C° 0.1 mm 3 m/S 757 mmHg 91%
    01:00 -10°C° 0.1 mm 4 m/S 756 mmHg 91%
    02:00 -10°C° 0.1 mm 4 m/S 756 mmHg 91%
    03:00 -10°C° 0.3 mm 4 m/S 755 mmHg 91%
    04:00 -9°C° 0.3 mm 4 m/S 754 mmHg 92%
    05:00 -9°C° 0.3 mm 4 m/S 754 mmHg 92%
    06:00 -8°C° 0.6 mm 3 m/S 753 mmHg 93%
    07:00 -7°C° 0.6 mm 3 m/S 753 mmHg 94%
    08:00 -7°C° 0.6 mm 3 m/S 753 mmHg 95%
    09:00 -5°C° 0.2 mm 3 m/S 753 mmHg 94%
    10:00 -3°C° 0.2 mm 2 m/S 753 mmHg 93%
    11:00 -1°C° 0.2 mm 2 m/S 753 mmHg 93%
    12:00 -1°C° 0.1 mm 2 m/S 753 mmHg 95%
    13:00 +1°C° 0.1 mm 2 m/S 753 mmHg 97%
    14:00 +1°C° 0.1 mm 2 m/S 753 mmHg 98%
    15:00 -1°C° 0 mm 2 m/S 753 mmHg 98%
    16:00 -1°C° 0 mm 2 m/S 753 mmHg 97%
    17:00 0°C° 0 mm 1 m/S 753 mmHg 96%
    18:00 -1°C° 0 mm 1 m/S 752 mmHg 97%
    19:00 -1°C° 0 mm 1 m/S 752 mmHg 97%
    20:00 -2°C° 0 mm 1 m/S 752 mmHg 97%
    21:00 -1°C° 0 mm 1 m/S 752 mmHg 97%
    22:00 -1°C° 0 mm 1 m/S 751 mmHg 96%
    23:00 -1°C° 0 mm 1 m/S 751 mmHg 96%

    25 Februar, Montag

    Zeit Temperatur Niederschläge Wind Luftdruck Luftfeuchtigkeit
    00:00 -1°C° 0 mm 1 m/S 751 mmHg 96%
    01:00 -1°C° 0 mm 1 m/S 750 mmHg 96%
    02:00 -1°C° 0 mm 1 m/S 750 mmHg 95%
    03:00 -1°C° 0 mm 1 m/S 749 mmHg 95%
    04:00 -1°C° 0 mm 1 m/S 749 mmHg 95%
    05:00 -1°C° 0 mm 1 m/S 748 mmHg 95%
    06:00 -3°C° 0 mm 2 m/S 748 mmHg 95%
    07:00 -3°C° 0 mm 2 m/S 747 mmHg 94%
    08:00 -3°C° 0 mm 2 m/S 747 mmHg 94%
    09:00 -2°C° 0 mm 2 m/S 747 mmHg 94%
    10:00 -2°C° 0 mm 2 m/S 747 mmHg 93%
    11:00 -1°C° 0 mm 2 m/S 746 mmHg 92%
    12:00 -1°C° 0 mm 2 m/S 746 mmHg 93%
    13:00 -1°C° 0 mm 2 m/S 746 mmHg 93%
    14:00 -1°C° 0 mm 2 m/S 746 mmHg 94%
    15:00 -1°C° 0.3 mm 2 m/S 746 mmHg 94%
    16:00 -1°C° 0.3 mm 2 m/S 746 mmHg 94%
    17:00 -1°C° 0.3 mm 2 m/S 746 mmHg 94%
    18:00 -1°C° 0.2 mm 3 m/S 746 mmHg 92%
    19:00 -3°C° 0.2 mm 4 m/S 746 mmHg 89%
    20:00 -4°C° 0.2 mm 5 m/S 746 mmHg 87%
    21:00 -3°C° 0 mm 4 m/S 746 mmHg 87%
    22:00 -2°C° 0 mm 3 m/S 746 mmHg 87%
    23:00 -4°C° 0 mm 3 m/S 746 mmHg 88%

    26 Februar, Dienstag

    Zeit Temperatur Niederschläge Wind Luftdruck Luftfeuchtigkeit
    00:00 -4°C° 0.1 mm 3 m/S 746 mmHg 89%
    01:00 -4°C° 0.1 mm 3 m/S 746 mmHg 90%
    02:00 -2°C° 0.1 mm 3 m/S 746 mmHg 91%
    03:00 -2°C° 0.1 mm 3 m/S 746 mmHg 91%
    04:00 -2°C° 0.1 mm 3 m/S 746 mmHg 91%
    05:00 -3°C° 0.1 mm 4 m/S 746 mmHg 91%
    06:00 -3°C° 0.1 mm 4 m/S 746 mmHg 90%
    07:00 -3°C° 0.1 mm 4 m/S 745 mmHg 89%
    08:00 -3°C° 0.1 mm 4 m/S 745 mmHg 88%
    09:00 -3°C° 0.1 mm 4 m/S 745 mmHg 88%
    10:00 -2°C° 0.1 mm 4 m/S 745 mmHg 88%
    11:00 -2°C° 0.1 mm 4 m/S 745 mmHg 88%
    12:00 -2°C° 0.1 mm 4 m/S 745 mmHg 87%
    13:00 -2°C° 0.1 mm 4 m/S 745 mmHg 86%
    14:00 -2°C° 0.1 mm 4 m/S 744 mmHg 85%
    15:00 -2°C° 0 mm 3 m/S 744 mmHg 86%
    16:00 -2°C° 0 mm 3 m/S 743 mmHg 87%
    17:00 -4°C° 0 mm 3 m/S 743 mmHg 88%
    18:00 -4°C° 0.1 mm 3 m/S 742 mmHg 90%
    19:00 -4°C° 0.1 mm 3 m/S 742 mmHg 91%
    20:00 -5°C° 0.1 mm 3 m/S 741 mmHg 93%
    21:00 -4°C° 0.3 mm 3 m/S 740 mmHg 94%
    22:00 -3°C° 0.3 mm 2 m/S 739 mmHg 95%
    23:00 -3°C° 0.3 mm 2 m/S 738 mmHg 95%
    Mehr zeigen